Anchorage, AK

8:57 AM AKST on February 08, 2016 (GMT -0900)
Merrill

Weather History for PAMR - August, 2015

Change the Weather History Date:

Friday, August 7, 2015

  Actual Average Record
Temperature  
Mean Temperature 65 °F -  
Max Temperature 77 °F 65 °F 78 °F (2004)
Min Temperature 55 °F 51 °F 44 °F (1996)
Growing Degree Days 15 (Base 50)    
Moisture  
Dew Point 50 °F    
Average Humidity 59    
Maximum Humidity 78    
Minimum Humidity 40    
Precipitation  
Precipitation 0.00 in - - ()
Sea Level Pressure  
Sea Level Pressure 29.82 in    
Wind  
Wind Speed 3 mph (WNW)    
Max Wind Speed 9 mph    
Max Gust Speed -    
Visibility 10 miles    
Events      
Averages and records for this station are not official NWS values.
T = Trace of Precipitation, MM = Missing Value Source: NWS Daily Summary

Daily Weather History Graph

Daily Weather History Graph

Search for Another Location

Airport or City:

Trip Planner

Search our weather history database for the weather conditions in past years. The results will help you decide how hot, cold, wet, or windy it might be!

Date:

Astronomy

Aug. 07, 2015 Rise Set
Actual Time 5:46 AM AKDT 10:21 PM AKDT
Civil Twilight 4:46 AM AKDT 11:21 PM AKDT
Nautical Twilight 2:42 AM AKDT 1:16 AM AKDT
Astronomical Twilight Sun does not rise Sun does not rise
Moon 12:19 AM AKDT (8/7) 4:36 PM AKDT (8/7)
Length of Visible Light 18h 34m
Length of Day
16h 34m
Last Quarter, 42% of the Moon is Illuminated
Aug 7
Last Quarter
Aug 14
New
Aug 22
First Quarter
Aug 29
Full
Sep 5
Last Quarter

Hourly Weather History & Observations

Time (AKDT) Temp. Dew Point Humidity Pressure Visibility Wind Dir Wind Speed Gust Speed Precip Events Conditions
12:53 AM 60.1 °F 48.9 °F 67% 29.84 in 10.0 mi Calm Calm - N/A   Scattered Clouds
1:53 AM 59.0 °F 48.0 °F 67% 29.85 in 10.0 mi East 3.5 mph - N/A   Partly Cloudy
2:53 AM 59.0 °F 48.9 °F 69% 29.85 in 10.0 mi ENE 3.5 mph - N/A   Partly Cloudy
3:53 AM 57.9 °F 46.9 °F 67% 29.85 in 10.0 mi North 3.5 mph - N/A   Partly Cloudy
4:53 AM 55.0 °F 48.0 °F 77% 29.85 in 10.0 mi Calm Calm - N/A   Partly Cloudy
5:53 AM 55.9 °F 46.9 °F 72% 29.85 in 10.0 mi Calm Calm - N/A   Partly Cloudy
6:53 AM 57.0 °F 46.9 °F 69% 29.85 in 10.0 mi Calm Calm - N/A   Clear
7:53 AM 59.0 °F 48.0 °F 67% 29.86 in 10.0 mi Calm Calm - N/A   Partly Cloudy
8:53 AM 63.0 °F 48.0 °F 58% 29.85 in 10.0 mi NNW 3.5 mph - N/A   Clear
9:53 AM 64.0 °F 50.0 °F 60% 29.85 in 10.0 mi WNW 4.6 mph - N/A   Partly Cloudy
10:53 AM 66.9 °F 50.0 °F 54% 29.84 in 10.0 mi NW 4.6 mph - N/A   Partly Cloudy
11:53 AM 71.1 °F 51.1 °F 49% 29.83 in 10.0 mi NW 4.6 mph - N/A   Partly Cloudy
12:53 PM 72.0 °F 51.1 °F 48% 29.83 in 10.0 mi WNW 4.6 mph - N/A   Partly Cloudy
1:53 PM 73.0 °F 51.1 °F 46% 29.82 in 10.0 mi WNW 6.9 mph - N/A   Clear
2:53 PM 75.0 °F 51.1 °F 43% 29.80 in 10.0 mi WNW 6.9 mph - N/A   Clear
3:53 PM 75.9 °F 50.0 °F 40% 29.79 in 10.0 mi WNW 6.9 mph - N/A   Partly Cloudy
4:53 PM 75.9 °F 51.1 °F 42% 29.78 in 10.0 mi West 6.9 mph - N/A   Partly Cloudy
5:53 PM 75.0 °F 51.1 °F 43% 29.77 in 10.0 mi West 9.2 mph - N/A   Clear
6:53 PM 75.0 °F 51.1 °F 43% 29.76 in 10.0 mi WNW 5.8 mph - N/A   Clear
7:53 PM 73.9 °F 52.0 °F 46% 29.76 in 10.0 mi West 5.8 mph - N/A   Clear
8:53 PM 69.1 °F 55.9 °F 63% 29.77 in 10.0 mi West 8.1 mph - N/A   Scattered Clouds
9:53 PM 66.9 °F 54.0 °F 63% 29.78 in 10.0 mi West 8.1 mph - N/A   Mostly Cloudy
10:53 PM 63.0 °F 55.9 °F 78% 29.79 in 10.0 mi West 6.9 mph - N/A   Clear
11:53 PM 63.0 °F 55.9 °F 78% 29.80 in 10.0 mi WSW 4.6 mph - N/A   Scattered Clouds